| time (UTC) | temp C | wind direction | speed KPH | gust KPH | rain 1hr cm | rain 24hr cm | rain mn cm | humidity % | barometer mb |
| 20260504081803 | 10 | 0 | 0.0 | 0.0 | 0.00 | 0.00 | 0.00 | 58 | 1016.7 |
| 20260504080903 | 10 | 0 | 0.0 | 0.0 | 0.00 | 0.00 | 0.00 | 58 | 1017.1 |
| 20260504050004 | 10 | 266 | 0.0 | 1.6 | 0.00 | 0.00 | 0.00 | 60 | 1017.3 |
| 20260504045403 | 10 | 271 | 0.0 | 1.6 | 0.00 | 0.00 | 0.00 | 62 | 1017.3 |
| 20260504044504 | 10 | 246 | 0.0 | 1.6 | 0.00 | 0.00 | 0.00 | 60 | 1017.2 |
| 20260504043603 | 10 | 228 | 0.0 | 3.2 | 0.00 | 0.00 | 0.00 | 60 | 1017.0 |
| 20260504042703 | 10 | 248 | 0.0 | 3.2 | 0.00 | 0.00 | 0.00 | 58 | 1017.1 |
| 20260504041803 | 11 | 252 | 0.0 | 1.6 | 0.00 | 0.00 | 0.00 | 54 | 1017.0 |
| 20260504040903 | 11 | 254 | 0.0 | 1.6 | 0.00 | 0.00 | 0.00 | 47 | 1017.1 |
| 20260504040025 | 11 | 245 | 0.0 | 3.2 | 0.00 | 0.00 | 0.00 | 48 | 1017.1 |
| 20260504035403 | 11 | 260 | 0.0 | 1.6 | 0.00 | 0.00 | 0.00 | 53 | 1017.3 |
| 20260504034503 | 10 | 0 | 0.0 | 0.0 | 0.00 | 0.00 | 0.00 | 52 | 1017.2 |
| 20260504033624 | 9 | 0 | 0.0 | 0.0 | 0.00 | 0.00 | 0.00 | 52 | 1017.2 |
| 20260504032724 | 9 | 260 | 0.0 | 1.6 | 0.00 | 0.00 | 0.00 | 59 | 1017.0 |
| 20260504031803 | 9 | 0 | 0.0 | 0.0 | 0.00 | 0.00 | 0.00 | 55 | 1017.2 |
| 20260504030903 | 10 | 0 | 0.0 | 0.0 | 0.00 | 0.00 | 0.00 | 53 | 1017.1 |
| 20260504030024 | 10 | 0 | 0.0 | 0.0 | 0.00 | 0.00 | 0.00 | 54 | 1017.2 |
| 20260504025403 | 10 | 247 | 0.0 | 1.6 | 0.00 | 0.00 | 0.00 | 56 | 1017.3 |
| 20260504024524 | 10 | 250 | 0.0 | 1.6 | 0.00 | 0.00 | 0.00 | 53 | 1017.1 |
| 20260504023603 | 11 | 265 | 0.0 | 1.6 | 0.00 | 0.00 | 0.00 | 50 | 1017.2 |
| 20260504022724 | 11 | 272 | 0.0 | 1.6 | 0.00 | 0.00 | 0.00 | 54 | 1017.1 |
| 20260504021803 | 11 | 311 | 0.0 | 1.6 | 0.00 | 0.00 | 0.00 | 47 | 1016.9 |
| 20260504020903 | 11 | 326 | 0.0 | 1.6 | 0.00 | 0.00 | 0.00 | 46 | 1016.9 |
| 20260504020003 | 11 | 250 | 0.0 | 1.6 | 0.00 | 0.00 | 0.00 | 48 | 1016.7 |
| 20260504015403 | 10 | 237 | 0.0 | 3.2 | 0.00 | 0.00 | 0.00 | 44 | 1016.8 |
| 20260504014503 | 11 | 279 | 0.0 | 1.6 | 0.00 | 0.00 | 0.00 | 49 | 1016.7 |
| 20260504013603 | 11 | 246 | 0.0 | 3.2 | 0.00 | 0.00 | 0.00 | 49 | 1016.4 |
| 20260504012703 | 11 | 247 | 0.0 | 3.2 | 0.00 | 0.00 | 0.00 | 39 | 1016.7 |
| 20260504011803 | 11 | 0 | 0.0 | 0.0 | 0.00 | 0.00 | 0.00 | 49 | 1016.4 |
| 20260504010903 | 11 | 0 | 0.0 | 0.0 | 0.00 | 0.00 | 0.00 | 51 | 1016.2 |
| 20260504010024 | 11 | 0 | 0.0 | 0.0 | 0.00 | 0.00 | 0.00 | 45 | 1016.3 |
| 20260504005403 | 11 | 0 | 0.0 | 0.0 | 0.00 | 0.00 | 0.00 | 44 | 1016.2 |
| 20260504004503 | 11 | 0 | 0.0 | 0.0 | 0.00 | 0.00 | 0.00 | 44 | 1016.2 |
| 20260504003603 | 11 | 0 | 0.0 | 0.0 | 0.00 | 0.00 | 0.00 | 45 | 1016.1 |
| 20260504002703 | 11 | 244 | 0.0 | 1.6 | 0.00 | 0.00 | 0.00 | 50 | 1016.1 |
| 20260504001803 | 12 | 0 | 0.0 | 0.0 | 0.00 | 0.00 | 0.00 | 48 | 1016.1 |
| 20260504000903 | 12 | 0 | 0.0 | 0.0 | 0.00 | 0.00 | 0.00 | 46 | 1016.2 |
| 20260504000005 | 13 | 269 | 0.0 | 1.6 | 0.00 | 0.00 | 0.00 | 45 | 1016.1 |
| 20260503235404 | 13 | 272 | 0.0 | 1.6 | 0.00 | 0.00 | 0.00 | 45 | 1015.9 |
| 20260503234525 | 14 | 0 | 0.0 | 0.0 | 0.00 | 0.00 | 0.00 | 42 | 1015.9 |
| 20260503233604 | 15 | 261 | 0.0 | 1.6 | 0.00 | 0.00 | 0.00 | 37 | 1015.8 |
| 20260503232704 | 15 | 244 | 0.0 | 1.6 | 0.00 | 0.00 | 0.00 | 32 | 1016.0 |
| 20260503231804 | 16 | 217 | 1.6 | 6.4 | 0.00 | 0.00 | 0.00 | 33 | 1015.8 |
| 20260503230904 | 16 | 223 | 1.6 | 6.4 | 0.00 | 0.00 | 0.00 | 27 | 1015.9 |
| 20260503230025 | 16 | 208 | 1.6 | 6.4 | 0.00 | 0.00 | 0.00 | 29 | 1015.8 |
| 20260503225404 | 16 | 232 | 1.6 | 4.8 | 0.00 | 0.00 | 0.00 | 31 | 1015.9 |
| 20260503224505 | 16 | 232 | 1.6 | 4.8 | 0.00 | 0.00 | 0.00 | 28 | 1016.1 |
| 20260503223604 | 16 | 234 | 1.6 | 6.4 | 0.00 | 0.00 | 0.00 | 27 | 1016.0 |
| 20260503222704 | 16 | 217 | 3.2 | 9.7 | 0.00 | 0.00 | 0.00 | 28 | 1016.2 |
| 20260503221804 | 16 | 219 | 3.2 | 9.7 | 0.00 | 0.00 | 0.00 | 27 | 1016.0 |
| 20260503220904 | 17 | 227 | 1.6 | 6.4 | 0.00 | 0.00 | 0.00 | 28 | 1016.1 |
| 20260503220004 | 16 | 230 | 1.6 | 9.7 | 0.00 | 0.00 | 0.00 | 28 | 1016.1 |
| 20260503215404 | 17 | 231 | 3.2 | 9.7 | 0.00 | 0.00 | 0.00 | 26 | 1016.1 |
| 20260503214504 | 17 | 211 | 3.2 | 11.3 | 0.00 | 0.00 | 0.00 | 27 | 1016.3 |
| 20260503213604 | 17 | 208 | 3.2 | 11.3 | 0.00 | 0.00 | 0.00 | 29 | 1016.4 |
| 20260503212704 | 18 | 236 | 3.2 | 9.7 | 0.00 | 0.00 | 0.00 | 27 | 1016.2 |
| 20260503211825 | 19 | 253 | 1.6 | 6.4 | 0.00 | 0.00 | 0.00 | 26 | 1016.3 |
| 20260503210904 | 19 | 239 | 3.2 | 9.7 | 0.00 | 0.00 | 0.00 | 25 | 1016.3 |
| 20260503210005 | 19 | 220 | 3.2 | 11.3 | 0.00 | 0.00 | 0.00 | 24 | 1016.4 |
| 20260503205404 | 20 | 258 | 1.6 | 6.4 | 0.00 | 0.00 | 0.00 | 26 | 1016.4 |
| 20260503204504 | 19 | 235 | 3.2 | 6.4 | 0.00 | 0.00 | 0.00 | 24 | 1016.6 |
| 20260503203625 | 19 | 225 | 3.2 | 11.3 | 0.00 | 0.00 | 0.00 | 25 | 1016.6 |
| 20260503202725 | 19 | 223 | 3.2 | 11.3 | 0.00 | 0.00 | 0.00 | 27 | 1016.5 |
| 20260503201804 | 18 | 238 | 3.2 | 9.7 | 0.00 | 0.00 | 0.00 | 26 | 1016.8 |
| 20260503200904 | 19 | 227 | 3.2 | 6.4 | 0.00 | 0.00 | 0.00 | 26 | 1017.0 |
| 20260503200004 | 20 | 228 | 3.2 | 9.7 | 0.00 | 0.00 | 0.00 | 25 | 1017.2 |
| 20260503195404 | 18 | 223 | 3.2 | 9.7 | 0.00 | 0.00 | 0.00 | 26 | 1017.4 |
| 20260503194525 | 18 | 230 | 3.2 | 6.4 | 0.00 | 0.00 | 0.00 | 26 | 1017.5 |
| 20260503193604 | 19 | 234 | 3.2 | 9.7 | 0.00 | 0.00 | 0.00 | 28 | 1017.5 |
| 20260503192704 | 19 | 209 | 3.2 | 11.3 | 0.00 | 0.00 | 0.00 | 27 | 1017.7 |
| 20260503191804 | 18 | 247 | 3.2 | 6.4 | 0.00 | 0.00 | 0.00 | 28 | 1017.6 |
| 20260503190904 | 18 | 243 | 1.6 | 6.4 | 0.00 | 0.00 | 0.00 | 28 | 1017.9 |
| 20260503190004 | 18 | 269 | 3.2 | 4.8 | 0.00 | 0.00 | 0.00 | 30 | 1018.0 |
| 20260503185404 | 18 | 268 | 3.2 | 6.4 | 0.00 | 0.00 | 0.00 | 28 | 1018.1 |
| 20260503184504 | 18 | 249 | 3.2 | 9.7 | 0.00 | 0.00 | 0.00 | 28 | 1018.4 |
| 20260503183604 | 18 | 226 | 3.2 | 6.4 | 0.00 | 0.00 | 0.00 | 27 | 1018.6 |
| 20260503182704 | 18 | 257 | 3.2 | 9.7 | 0.00 | 0.00 | 0.00 | 31 | 1018.4 |
| 20260503181825 | 17 | 212 | 3.2 | 9.7 | 0.00 | 0.00 | 0.00 | 30 | 1018.5 |
| 20260503180904 | 16 | 217 | 3.2 | 12.9 | 0.00 | 0.00 | 0.00 | 31 | 1018.7 |
| 20260503180005 | 16 | 216 | 3.2 | 9.7 | 0.00 | 0.00 | 0.00 | 34 | 1018.7 |
| 20260503175404 | 16 | 244 | 3.2 | 6.4 | 0.00 | 0.00 | 0.00 | 34 | 1018.9 |
| 20260503174504 | 15 | 220 | 3.2 | 12.9 | 0.00 | 0.00 | 0.00 | 33 | 1019.1 |
| 20260503173604 | 15 | 197 | 3.2 | 12.9 | 0.00 | 0.00 | 0.00 | 32 | 1019.2 |
| 20260503172725 | 15 | 221 | 3.2 | 12.9 | 0.00 | 0.00 | 0.00 | 37 | 1019.2 |
| 20260503171804 | 13 | 230 | 3.2 | 16.1 | 0.00 | 0.00 | 0.00 | 35 | 1019.4 |
| 20260503170904 | 13 | 218 | 3.2 | 9.7 | 0.00 | 0.00 | 0.00 | 36 | 1019.5 |
| 20260503150925 | 10 | 212 | 3.2 | 11.3 | 0.00 | 0.00 | 0.00 | 44 | 1020.4 |
| 20260503130904 | 7 | 222 | 3.2 | 12.9 | 0.00 | 0.00 | 0.00 | 51 | 1020.4 |